Location: Hurecourt
(47.9030°N, 6.0653°E)
Time: 03:38:56
(UTC+00:00)

Lacrosse 5 - Pass Details

Date: 14 July 2020
Orbit: 717 x 720 km, 57.0° (Epoch: 04 August)

Event Time Altitude Azimuth Distance (km) Brightness Sun altitude
Exits shadow 00:10:41 35° 229° (SW) 1,147 2.5 -20.2°
Maximum altitude 00:12:51 87° 141° (SE) 725 1.8 -20.1°
Drops below altitude 10° 00:17:57 10° 54° (NE) 2,208 5.0 -20.0°
Sets 00:20:20 0° 54° (NE) 3,131 5.9 -19.9°
